ROMMA est une association bénévole à but non lucratif. Votre soutien est indispensable : ADHERER à ROMMA ou FAIRE un DON

Chamrousse - (38, Isère)

Massif de Belledonne (1800 m)   Longitude: 05° 52' 28" E   Latitude: 45° 06' 28" N Station partenaire n°3
 

Détail journalier du     <<     >>

Température Precipitation Humidité Pression Vent Dir Rafale Dir. rafale
Heure (°C) (mm) (%) (hPa) (km/h) (km/h)
01:00 5.90.684100919SE35ESE
02:00 6.0080100919SE32E
03:00 6.7075100812SE34SE
04:00 5.61.28410098ESE26SE
05:00 5.91.481100816SE39ESE
06:00 6.4072100816E29ESE
07:00 6.8070100819ESE39ESE
08:00 7.2065100820ESE35ESE
09:00 8.0059100719ESE34ESE
10:00 8.6058100713ESE35ESE
11:00 9.2060100710SE24SE
12:00 9.306710079SSO23SSO
13:00 9.3069100710SSO21SO
14:00 10.1055100614SSO32SSO
15:00 8.2068100713SSO32SSO
16:00 7.8070100713ESE29ESE
17:00 7.4067100724E47E
18:00 7.7066100624E64SE
19:00 7.9066100624SE47SSE
20:00 8.0066100623SE56ESE
21:00 7.8069100524SE52ESE
22:00 8.0067100622ESE50SE
23:00 7.8069100618ESE45E
minuit 8.1067100520SE40ESE

Graphique du 16-05-2008

 

Serveur OMMA